Location: Alafon
(8.4500°N, 4.2333°E)
Time: 02:11:36
(UTC+00:00)

deb Explorer IX - Pass Details

Date: 31 July 2021
Orbit: 545 x 1092 km, 38.8° (Epoch: 16 September)

Event Time Altitude Azimuth Distance (km) Brightness Sun altitude
Rises 08:49:28 0° 204° (SSW) 2,694 ? 45.3°
Reaches altitude 10° 08:52:08 10° 186° (S) 1,798 ? 45.9°
Maximum altitude 08:55:12 20° 137° (SE) 1,283 ? 46.6°
Drops below altitude 10° 08:58:21 10° 88° (E) 1,862 ? 47.4°
Sets 09:01:10 0° 72° (ENE) 2,822 ? 48.0°
